Weather in Chegdomyn

Russia / Khabarovsk Krai     51°08′01″N   133°02′10″E
temp.,
°C
wind,
m/s
gust,
m/s
humid.,
%
clouds,
%
prec.,
mm/h
press.,
hPa
HPBL,
m
20 january, thu
thu2001:00−31ene11100100 0.0 10339
04:00−32ene11100100 0.1 10339
07:00−33ene11100100 0.0 10349
10:00−31e0010085 0.0 103525
13:00−23w118973 0.0 1033236
16:00−21wsw118739 0.0 1033242
19:00−29se111005 0.0 10369
22:00−31e1110018 0.0 10379
21 january, fri
fri2101:00−32ene1110064 0.0 10389
04:00−33ene1110083 0.0 10399
07:00−34e1110092 0.0 10399
10:00−32nne0010090 0.0 103928
13:00−24w118979 0.0 1037234
16:00−22wsw11876 0.0 1035251
19:00−30ese111005 0.0 10379
22:00−32e111006 0.0 10379
22 january, sat
sat2201:00−33ene111009 0.0 10379
04:00−34ene1110065 0.0 10379
07:00−35ene1110064 0.0 10389
10:00−32ene009968 0.0 103728
13:00−24wnw118967 0.0 1034217
16:00−21wsw11885 0.0 1032229
19:00−29ese111005 0.0 10349
22:00−32e1110015 0.0 10359
23 january, sun
sun2301:00−33ene111008 0.0 10359
04:00−34ene1110019 0.0 10349
07:00−34ene1110072 0.0 10349
10:00−31ne0010089 0.0 103330
13:00−23w119084 0.0 1031236
16:00−21wsw118839 0.0 1029243
19:00−29ese111007 0.0 10309
22:00−31ene1110062 0.0 10319
24 january, mon
mon2401:00−32ne11100100 0.0 10319
04:00−32e11100100 0.0 10329
07:00−33ene11100100 0.0 10329
10:00−31ene0010091 0.0 103230
13:00−23wnw118985 0.0 1030242
16:00−20w118857 0.0 1029250
19:00−28ese111005 0.0 10319
22:00−30e111009 0.0 10319